Starlink 32182

operational
NORAD ID: 60319 Int'l Des: 2024-133 Owner: SPXS Country: US Constellation: starlink
LEOCIRCULAR

关于 Starlink 32182

正在加载描述...

实时位置

正在加载3D地球...

即将过境

高度历史

Altitude vs Time

uPlot chart will show altitude changes over time

两行轨道根数

1 60319U 24133U 25305.62921531 .00000842 00000-0 40560-4 0 9999
2 60319 53.1593 171.8934 0001306 90.9762 269.1388 15.30184594 72032
Epoch: Nov 1, 2025 • Age: 13 hours

当前状态

高度 475.1 km
速度 7.63 km/s
星下点 14.20°N, 128.45°W
发射日期 Jul 28, 2024
运行时间 1.2 years
类型 internet

技术详情

分类 Payload
质量 730.00 kg
干质量 700.00 kg
总质量 730.00 kg
长度 0.30 m
直径 4.10 m
跨度 29.00 m
形状 Box + pan
制造商 SPXS
平台类型 Starlink V2M
阶段状态 In Orbit
所有者/国家 SPXS/US

大型星座

Loading constellations...